• MPC Preparation (Info)

  • MPEC 1999-B06 : 1999 AQ10

    The following Minor Planet Electronic Circular may be linked-to from your own Web pages, but must not otherwise be redistributed electronically.

    A form allowing access to any MPEC is at the bottom of this page.


    Read MPEC 1999-B05 Read MPEC 1999-B07


    M.P.E.C. 1999-B06                                Issued 1999 Jan. 16, 16:17 UT
    
         The Minor Planet Electronic Circulars contain information on unusual
             minor planets and routine data on comets.  They are published
       on behalf of Commission 20 of the International Astronomical Union by the
              Minor Planet Center, Smithsonian Astrophysical Observatory,
                              Cambridge, MA 02138, U.S.A.
    
                 BMARSDEN@CFA.HARVARD.EDU or GWILLIAMS@CFA.HARVARD.EDU
                       URL http://cfa-www.harvard.edu/iau/mpc.html
    
                                       1999 AQ10
    
    Observations:
         J99A10Q* C1999 01 14.32980 09 15 36.23 +44 21 03.6          18.2        704
         J99A10Q  C1999 01 14.37573 09 15 21.24 +44 21 59.6          18.8        704
         J99A10Q  C1999 01 14.39868 09 15 13.71 +44 22 26.0          18.7        704
         J99A10Q  C1999 01 14.42381 09 15 05.50 +44 22 53.9          18.8        704
         J99A10Q  C1999 01 15.02696 09 12 02.71 +44 34 25.5                      046
         J99A10Q  C1999 01 15.02801 09 12 02.45 +44 34 26.6          17.0 R      046
         J99A10Q  C1999 01 15.02914 09 12 01.99 +44 34 28.3                      046
         J99A10Q  C1999 01 15.03150 09 12 01.23 +44 34 31.0                      046
         J99A10Q  C1999 01 15.85290 09 07 40.53 +44 49 46.9          16.9 R      046
         J99A10Q  C1999 01 15.85381 09 07 40.22 +44 49 47.7                      046
         J99A10Q  C1999 01 15.85468 09 07 39.96 +44 49 48.6                      046
         J99A10Q  C1999 01 15.85609 09 07 39.48 +44 49 50.7                      046
         J99A10Q  C1999 01 15.85707 09 07 39.12 +44 49 51.7                      046
         J99A10Q  C1999 01 15.92572 09 07 15.62 +44 51 17.8                      587
         J99A10Q  C1999 01 15.92868 09 07 14.57 +44 51 20.9                      587
    
    Observer details:
    046 Klet.  Observers J. Ticha, M. Tichy.  Measurer M. Tichy.  0.57-m f/5.2
        reflector + CCD.
    587 Sormano.  Observers P. Sicoli, A. Testa.  0.5-m reflector + CCD.
    704 Lincoln Laboratory ETS, New Mexico.  Observers M. Blythe, F. Shelly,
        M. Bezpalko.  Measurers J. Stuart, H. Viggh, R. Sayer.  1.0-m f/2.15
        reflector + CCD.
    
    Orbital elements:
    1999 AQ10                                                            PHA 0.000
    Epoch 1999 Jan. 2.0 TT = JDT 2451180.5                  Williams
    M 209.27176              (2000.0)            P               Q
    n   1.08666904     Peri.  299.51181     -0.04658967     +0.99708437
    a   0.9369963      Node   327.64694     -0.87294647     -0.07004925
    e   0.2321695      Incl.    6.48428     -0.48558609     +0.03026324
    P   0.91           H   20.2           G   0.15
    From 15 observations 1999 Jan. 14-15.
    
    Ephemeris:
    1999 AQ10                a,e,i = 0.94, 0.23, 6                   q = 0.7195
    Date    TT    R. A. (2000) Decl.     Delta      r     Elong.  Phase     V
    1999 01 12    09 26.18   +43 33.5    0.157    1.120   147.9    27.8    17.7
    1999 01 17    09 01.05   +45 10.6    0.140    1.110   152.0    24.6    17.3
    1999 01 22    08 26.52   +46 14.6    0.126    1.098   153.5    23.6    17.0
    1999 01 27    07 43.31   +46 09.2    0.115    1.086   150.4    26.6    16.9
    1999 02 01    06 55.35   +44 21.0    0.107    1.073   142.9    33.7    16.9
    1999 02 06    06 08.62   +40 40.7    0.102    1.058   132.4    43.5    17.1
    1999 02 11    05 27.95   +35 32.3    0.101    1.042   120.7    54.5    17.3
    1999 02 16    04 55.01   +29 38.9    0.102    1.025   108.8    65.8    17.6
    1999 02 21    04 28.90   +23 38.5    0.106    1.008    97.3    76.7    18.0
    1999 02 26    04 07.69   +17 52.9    0.110    0.989    86.4    87.2    18.5
    1999 03 03    03 49.42   +12 30.0    0.116    0.970    76.1    97.3    18.9
    1999 03 08    03 32.59   +07 31.5    0.122    0.950    66.2   107.1    19.5
    1999 03 13    03 16.15   +02 58.0    0.129    0.929    56.7   116.6    20.2
    1999 03 18    02 59.41   -01 08.8    0.137    0.908    47.6   126.0    21.0
    1999 03 23    02 42.05   -04 44.8    0.147    0.887    39.1   134.9    22.0
    
    Gareth V. Williams           (C) Copyright 1999 MPC           M.P.E.C. 1999-B06
    

    Read MPEC 1999-B05 Read MPEC 1999-B07


    MPEC number:

    Enter an MPEC number in one of the following forms:

    • 1997-B01 (the full form)
    • J97B01 (the packed version of the full form)
    • B01 (the abbreviated form)